Location: Poughquag
(41.6090°N, 73.6820°W)
Time: 10:12:57
(UTC-05:00)

Vanguard 1 - Pass Details

Date: 01 December 2023
Orbit: 653 x 3826 km, 34.3° (Epoch: 25 February)

Event Time Altitude Azimuth Distance (km) Brightness Sun altitude
Rises 23:55:55 0° 281° (W) 7,766 14.7 -70.0°
Reaches altitude 10° 00:01:15 10° 277° (W) 6,879 14.3 -69.8°
Enters shadow 00:04:00 16° 274° (W) 6,426 14.0 -69.7°
Maximum altitude 00:23:10 51° 211° (SSW) 4,073 - -68.5°
Drops below altitude 10° 00:39:33 10° 141° (SE) 5,275 - -66.9°
Sets 00:43:01 0° 136° (SE) 5,924 - -66.5°
